[[{"header":{"parameterUnit":"m.s-1","parameterCategory":1,"la1":30.2991,"la2":30.254,"lo1":-89.0895,"lo2":-89.0444,"dy":0.0017,"dx":0.0017,"nx":28,"ny":28,"refTime":"2023-08-12T03:00:00:Z","depth":0,"parameterNumber":2,"parameterNumberName":"U-component_of_WINDS"},"data":[0,0,0,0,0,0,0,0,0,0,0,0,0,0,0,0,0,0,0,0,0,0,0,0,0,0,0,0,0,0,0,0,0,0,0,0,0,0,0,0,0,0,0,0,0,0,0,0,0,0,0,0,0,0,0,0,0,0,5.2279,5.228,0,5.2346,5.2347,5.2348,5.2236,5.2233,5.2229,5.2225,5.2294,5.23,5.2305,0,0,0,0,0,0,0,0,0,0,0,0,0,5.2052,5.2057,5.2279,5.228,5.228,5.2346,5.2347,5.2348,5.2237,5.2232,5.2228,5.2223,5.2293,5.2299,5.2305,0,0,0,0,0,0,0,0,0,0,0,0,0,5.2138,5.2059,5.2279,5.2233,5.223,5.2346,5.2347,5.2348,5.2238,5.2232,5.2227,5.2221,5.2291,5.2298,5.2306,5.247,0,0,5.2331,5.2335,0,0,0,0,0,0,0,0,5.2134,5.2147,5.2239,5.2236,5.2233,5.2277,5.2292,5.2389,5.2239,5.2235,5.2225,5.2218,5.2293,5.2301,5.2326,5.2474,5.2477,5.2332,5.2337,5.234,5.2342,0,0,0,0,0,0,0,5.2128,5.2143,5.2305,5.224,5.2237,5.2209,5.2214,5.231,5.2295,5.2235,5.2227,5.2236,5.229,5.2318,5.2327,5.2478,5.2332,5.2339,5.2344,5.2347,5.2759,5.2765,0,0,0,0,0,0,5.2128,5.2139,5.2303,5.2307,5.2168,5.2217,5.2224,5.2269,5.2294,5.2292,5.2241,5.2231,5.2307,5.2317,5.2329,5.2519,5.234,5.2348,5.2352,5.2753,5.276,5.2767,0,0,0,0,0,0,5.2123,5.2143,5.23,5.2221,5.2239,5.2227,5.2278,5.2273,5.23,5.2299,5.2295,5.2272,5.2303,5.2317,5.2435,5.252,5.2351,5.2359,5.2746,5.2755,5.2763,5.2903,0,0,0,0,0,0,5.2117,5.2142,5.2205,5.2223,5.2244,5.2407,5.2284,5.2278,5.2315,5.2302,5.2327,5.2326,5.23,5.2423,5.2443,5.2528,5.2365,5.2738,5.275,5.276,5.2891,5.2916,5.2937,0,0,0,0,0,5.2109,5.2243,5.2209,5.2229,5.2322,5.2412,5.2423,5.2391,5.2322,5.2384,5.2383,5.2325,5.2508,5.2436,5.2457,5.2546,5.2732,5.2746,5.276,5.288,5.2911,5.2936,0,0,0,0,0,0,5.2235,5.2244,5.2207,5.235,5.2381,5.2393,5.247,5.2425,5.2476,5.2462,5.2419,5.2426,5.2551,5.2561,5.2481,5.2704,5.2608,5.2627,5.2693,5.2722,5.2745,5.2738,5.2372,0,0,0,0,0,5.228,5.2352,5.2356,5.2482,5.2499,5.2483,5.2521,5.2493,5.2523,5.2535,5.2542,5.2574,5.2637,5.2681,5.274,5.2892,5.2894,5.2963,5.2987,5.3006,5.3021,5.3099,5.3128,5.2812,5.2812,5.2811,0,0,5.2372,5.2386,5.2435,5.2508,5.2528,5.2603,5.2494,5.2579,5.2633,5.2548,5.2658,5.2665,5.2697,5.2831,5.2891,5.2843,5.3109,5.3023,5.3038,5.3044,5.3116,5.3146,5.3172,5.2821,5.2819,5.2818,0,0,5.2578,5.2597,5.2702,5.2725,5.2757,5.2744,5.277,5.2789,5.2789,5.2899,5.2836,5.29,5.3012,5.3036,5.3064,5.3277,5.3224,5.3297,5.3418,5.3494,5.3519,5.354,5.3613,5.364,5.3314,5.3314,5.3314,0,5.2689,5.2799,5.2762,5.285,5.2883,5.2809,5.2914,5.2937,5.2988,5.3011,5.2957,5.3094,5.3111,5.3248,5.33,5.3326,5.3351,5.3293,5.3518,5.354,5.3559,5.3628,5.3656,5.3322,5.3321,5.3321,5.332,0,5.2932,5.3009,5.309,5.3139,5.3181,5.3278,5.3254,5.3301,5.327,5.3263,5.3374,5.3392,5.3451,5.3482,5.3453,5.3615,5.3584,5.3525,5.3427,5.3599,5.3662,5.3688,5.3334,5.3331,5.3329,5.3327,0,0,5.3218,5.3244,5.3274,5.3294,5.3323,5.3382,5.3474,5.3532,5.3571,5.3609,5.3683,5.3779,5.3723,5.3754,5.3727,5.3794,5.3957,5.3726,5.3726,5.3766,5.4132,5.4174,5.4205,5.3924,5.3929,5.3933,5.4128,0,5.342,5.3578,5.3547,5.3701,5.377,5.37,5.378,5.3806,5.3802,5.3859,5.3855,5.3922,5.3846,5.3863,5.3927,5.3924,5.403,5.391,5.399,5.3993,5.3981,5.4239,5.4284,5.4468,5.4153,5.4158,5.4161,0,5.3676,5.3721,5.3882,5.3897,5.3925,5.3998,5.4046,5.4103,5.413,5.4122,5.4156,5.4115,5.4205,5.4108,5.423,5.4149,5.418,5.4184,5.419,5.4193,5.4085,5.4246,5.4526,5.4553,5.42,5.4197,5.4194,0,5.3864,5.3966,5.4074,5.4093,5.4115,5.4167,5.4178,5.42,5.4236,5.4278,5.43,5.4354,5.4383,5.4424,5.4398,5.4331,5.4523,5.4425,5.4516,5.4517,5.4558,5.4555,5.4843,5.4584,5.4584,5.4583,5.4583,0,5.4091,5.4191,5.4158,5.4224,5.4334,5.4297,5.4406,5.4409,5.4429,5.4493,5.4437,5.4499,5.4462,5.4521,5.4501,5.4603,5.4617,5.4611,5.4604,5.4615,5.4615,5.4632,5.4617,5.4591,5.4589,5.4588,5.4586,0,5.4318,5.4301,5.4413,5.4424,5.4429,5.4509,5.4517,5.4578,5.457,5.4652,5.4669,5.4655,5.4721,5.47,5.4771,5.4758,5.4885,5.4864,5.4876,5.4869,5.496,5.4951,5.5267,5.5305,5.5025,5.5028,5.503,0,5.4463,5.4538,5.4556,5.4595,5.461,5.4674,5.4709,5.4676,5.4715,5.475,5.4807,5.4867,5.4913,5.5021,5.5017,5.5071,5.5047,5.5155,5.5055,5.5062,5.5044,5.5039,5.5045,5.5174,5.5177,5.518,5.5182,0,5.4719,5.4706,5.4759,5.481,5.4853,5.4891,5.4924,5.4959,5.4927,5.4974,5.5039,5.5076,5.5147,5.5207,5.5255,5.5265,5.5218,5.5213,5.5236,5.5246,5.5248,5.5244,5.4926,5.5206,5.5203,5.5201,5.52,5.5199,5.4907,5.4969,5.499,5.5051,5.5072,5.5103,5.516,5.5158,5.5212,5.5267,5.5244,5.5319,5.5342,5.5401,5.5418,5.5475,5.5434,5.5469,5.5477,5.5485,5.5495,5.5242,5.5485,5.5484,5.5483,5.5483,5.5482,0,5.5157,5.5167,5.5223,5.527,5.5317,5.5269,5.5302,5.5344,5.5411,5.5436,5.5482,5.5557,5.5614,5.5614,5.5667,5.5713,5.5692,5.5727,5.5722,5.5724,5.5531,5.5504,5.5743,5.5743,5.5743,5.5743,5.5743,5.5743,5.5292,5.5393,5.5383,5.5493,5.5502,5.5575,5.5597,5.5625,5.5645,5.573,5.5777,5.5777,5.5791,5.5844,5.5894,5.5892,5.5912,5.5956,5.5946,5.5764,5.5738,5.5713,5.5687,5.5961,5.5962,5.6133,5.6135,5.6136]},{"header":{"parameterUnit":"m.s-1","parameterCategory":1,"la1":30.2991,"la2":30.254,"lo1":-89.0895,"lo2":-89.0444,"dy":0.0017,"dx":0.0017,"nx":28,"ny":28,"refTime":"2023-08-12T03:00:00:Z","depth":0,"parameterNumber":3,"parameterNumberName":"V-component_of_WINDS"},"data":[0,0,0,0,0,0,0,0,0,0,0,0,0,0,0,0,0,0,0,0,0,0,0,0,0,0,0,0,0,0,0,0,0,0,0,0,0,0,0,0,0,0,0,0,0,0,0,0,0,0,0,0,0,0,0,0,0,0,3.943,3.9432,0,3.9549,3.9551,3.9552,3.9549,3.9547,3.9545,3.9544,3.9662,3.9667,3.9671,0,0,0,0,0,0,0,0,0,0,0,0,0,3.9195,3.9199,3.943,3.9432,3.9433,3.9549,3.9551,3.9552,3.9549,3.9547,3.9545,3.9543,3.9661,3.9666,3.9672,0,0,0,0,0,0,0,0,0,0,0,0,0,3.9304,3.9201,3.943,3.9446,3.9448,3.9549,3.9551,3.9553,3.9549,3.9547,3.9545,3.9542,3.9659,3.9666,3.9673,3.9764,0,0,3.9694,3.9697,0,0,0,0,0,0,0,0,3.9298,3.9312,3.9442,3.9445,3.9448,3.9532,3.9511,3.9624,3.955,3.9511,3.9544,3.9541,3.9621,3.9631,3.9658,3.977,3.9775,3.9695,3.9699,3.9702,3.9704,0,0,0,0,0,0,0,3.929,3.9307,3.9477,3.9444,3.9447,3.9445,3.9458,3.9532,3.9578,3.9514,3.9514,3.9528,3.9622,3.9651,3.9661,3.9777,3.9694,3.9701,3.9705,3.9708,3.9967,3.9969,0,0,0,0,0,0,3.928,3.9301,3.9473,3.9481,3.9365,3.9451,3.9466,3.9507,3.9577,3.9585,3.953,3.9528,3.9641,3.9653,3.9665,3.9775,3.9702,3.9708,3.9712,3.9964,3.9967,3.997,0,0,0,0,0,0,3.9275,3.9295,3.9469,3.9391,3.9413,3.9458,3.9505,3.9511,3.9541,3.9589,3.9597,3.9553,3.9639,3.9655,3.9739,3.9779,3.9711,3.9718,3.9961,3.9965,3.9969,3.9998,0,0,0,0,0,0,3.9268,3.9294,3.933,3.9392,3.9417,3.9543,3.9507,3.9515,3.9553,3.9551,3.9612,3.962,3.9638,3.9729,3.9746,3.9788,3.9723,3.9958,3.9963,3.9968,3.9993,4.0002,4.001,0,0,0,0,0,3.926,3.9333,3.9332,3.9353,3.9464,3.9545,3.9559,3.958,3.9556,3.9592,3.9623,3.9618,3.9772,3.9738,3.9757,3.9801,3.9955,3.9961,3.9967,3.999,4.0,4.001,0,0,0,0,0,0,3.9274,3.9342,3.9341,3.9437,3.9486,3.9544,3.9591,3.9591,3.9646,3.9642,3.9664,3.9678,3.9761,3.979,3.975,3.9892,3.9861,3.9871,3.9871,3.9882,3.989,3.988,3.9729,0,0,0,0,0,3.9289,3.9351,3.9405,3.9485,3.9509,3.9546,3.9582,3.9593,3.9644,3.9664,3.9701,3.9749,3.9808,3.9846,3.9904,3.9998,4.001,4.0037,4.0045,4.0052,4.006,4.011,4.0122,3.999,3.999,3.999,0,0,3.9319,3.9364,3.9401,3.9489,3.9528,3.9589,3.9563,3.963,3.9675,3.9674,3.9755,3.9784,3.9839,3.9928,3.9969,3.9954,4.0099,4.006,4.0065,4.0069,4.0117,4.0129,4.0141,3.9994,3.9994,3.9993,0,0,3.9406,3.9447,3.9516,3.9555,3.9615,3.9638,3.9655,3.9714,3.9733,3.9815,3.9815,3.9868,3.997,4.0009,4.0041,4.014,4.0137,4.0158,4.0201,4.0249,4.0259,4.0268,4.0302,4.0314,4.0167,4.0167,4.0167,0,3.9436,3.953,3.9552,3.9618,3.9656,3.9658,3.9727,3.9764,3.9839,3.9863,3.9846,3.9973,4.001,4.0107,4.0131,4.0158,4.0176,4.0151,4.0256,4.0266,4.0275,4.0307,4.0319,4.0169,4.0169,4.0168,4.0168,0,3.9562,3.9627,3.9676,3.9749,3.9792,3.9859,3.9889,3.993,3.9937,3.9962,4.0045,4.0089,4.0154,4.0178,4.0187,4.0276,4.0265,4.0252,4.022,4.0289,4.0319,4.0332,4.0172,4.0171,4.017,4.017,0,0,3.9662,3.9745,3.9762,3.9794,3.9859,3.9908,3.9975,4.004,4.0073,4.0124,4.0179,4.0264,4.0252,4.0289,4.0301,4.0344,4.0416,4.0325,4.0327,4.0339,4.0515,4.0523,4.0538,4.0415,4.0417,4.0419,4.051,0,3.9754,3.9874,3.9894,3.9998,4.0057,4.006,4.0117,4.0162,4.0187,4.0239,4.0265,4.0325,4.0305,4.0327,4.037,4.0399,4.0452,4.0393,4.0464,4.0466,4.0449,4.0554,4.0563,4.0647,4.0522,4.0524,4.0526,0,3.9877,3.9932,4.0042,4.0097,4.0122,4.0174,4.0234,4.0284,4.0334,4.0349,4.039,4.0396,4.0463,4.0429,4.052,4.048,4.051,4.0528,4.0532,4.0539,4.0499,4.0561,4.0674,4.0686,4.0545,4.0543,4.0542,0,3.9936,4.0037,4.0115,4.0143,4.021,4.0245,4.0274,4.0322,4.0359,4.0411,4.0434,4.0493,4.0525,4.0569,4.059,4.0564,4.068,4.0648,4.0692,4.0691,4.0715,4.0713,4.0833,4.0737,4.0737,4.0737,4.0737,0,4.0036,4.0103,4.0143,4.0191,4.0265,4.0287,4.0359,4.0387,4.0429,4.0481,4.0487,4.0535,4.0561,4.0613,4.063,4.0701,4.0716,4.0728,4.0732,4.0727,4.0725,4.0747,4.0741,4.074,4.0739,4.0739,4.0738,0,4.0114,4.0144,4.0229,4.0285,4.0301,4.0353,4.04,4.0445,4.0469,4.0535,4.0551,4.0588,4.0649,4.0675,4.075,4.0761,4.0843,4.0843,4.0826,4.0827,4.0869,4.0864,4.1006,4.1025,4.0918,4.0919,4.0919,0,4.0176,4.0227,4.0288,4.0324,4.0354,4.0412,4.0449,4.0473,4.0511,4.0571,4.0609,4.067,4.072,4.0817,4.0849,4.0906,4.0906,4.0952,4.0915,4.0908,4.0905,4.0901,4.0905,4.0958,4.0959,4.096,4.0961,0,4.028,4.0292,4.0347,4.0406,4.0451,4.0499,4.0545,4.0573,4.0603,4.0646,4.0709,4.0748,4.0824,4.0884,4.0942,4.097,4.097,4.0972,4.0985,4.098,4.0968,4.0974,4.0843,4.0969,4.0968,4.0967,4.0967,4.0967,4.0351,4.0396,4.0445,4.0505,4.0543,4.0586,4.0631,4.066,4.0714,4.0778,4.0788,4.0854,4.0901,4.0979,4.1009,4.106,4.1049,4.1068,4.1073,4.1077,4.1078,4.0961,4.1071,4.1071,4.1071,4.1071,4.1071,0,4.0454,4.0486,4.0541,4.0606,4.0652,4.065,4.07,4.0739,4.0798,4.0842,4.0891,4.0962,4.1019,4.1056,4.1114,4.1147,4.1149,4.1161,4.1159,4.1165,4.1086,4.1069,4.1159,4.1159,4.1159,4.1159,4.1159,4.1159,4.0513,4.0588,4.0606,4.0699,4.073,4.0796,4.0825,4.0863,4.0898,4.0978,4.1026,4.105,4.109,4.1151,4.1203,4.1212,4.1232,4.1246,4.1254,4.118,4.117,4.1161,4.1145,4.125,4.125,4.1327,4.1328,4.1329]}]]